IZ4UFQ-10 Weather Reports


time (UTC)temp
C
wind
direction
speed
KPH
gust
KPH
rain 1hr
cm
rain 24hr
cm
rain mn
cm
humidity
%
barometer
mb
20260506235327 14 211 0.0 0.0 0.00 3.10 0.00 70 1010.9
20260506234827 14 211 0.0 0.0 0.00 3.10 0.00 71 1010.9
20260506234327 14 211 0.0 0.0 0.00 3.10 0.00 70 1010.8
20260506233826 14 210 0.0 0.0 0.00 3.10 0.00 70 1010.9
20260506233326 15 210 0.0 0.0 0.00 3.10 0.00 69 1010.9
20260506232826 14 210 0.0 0.0 0.00 3.10 0.00 69 1011.0
20260506232326 14 210 0.0 0.0 0.00 3.10 0.00 69 1011.0
20260506231825 14 210 0.0 0.0 0.00 3.10 0.00 69 1011.0
20260506231325 15 211 0.0 0.0 0.00 3.10 0.00 69 1011.0
20260506230825 15 211 0.0 0.0 0.00 3.10 0.00 67 1011.1
20260506230325 15 210 0.0 0.0 0.00 3.10 0.00 67 1011.1
20260506225824 15 209 0.0 0.0 0.00 3.12 0.00 67 1011.1
20260506225324 15 210 0.0 0.0 0.00 3.12 0.00 67 1011.1
20260506224824 15 214 0.0 0.0 0.00 3.12 0.00 67 1011.1
20260506224323 15 216 0.0 0.0 0.00 3.12 0.00 68 1011.0
20260506223823 15 239 0.0 0.0 0.00 3.12 0.00 67 1011.0
20260506223323 15 240 0.0 0.0 0.00 3.12 0.00 67 1011.0
20260506222822 15 240 0.0 0.0 0.00 3.12 0.00 66 1011.0
20260506222322 15 243 0.0 0.0 0.00 3.12 0.00 66 1010.9
20260506221822 15 189 0.0 0.0 0.00 3.12 0.00 65 1010.8
20260506221322 16 189 0.0 0.0 0.00 3.12 0.00 64 1010.8
20260506220821 16 188 0.0 0.0 0.00 3.12 0.00 63 1010.8
20260506220321 16 188 0.0 0.0 0.00 3.12 0.00 63 1010.7
20260506215821 16 187 0.0 0.0 0.00 3.12 0.00 63 1010.8
20260506215320 16 189 0.0 0.0 0.00 3.12 3.12 63 1010.7
20260506214820 15 184 0.0 0.0 0.00 3.12 3.12 64 1010.7
20260506214320 16 184 0.0 0.0 0.00 3.12 3.12 64 1010.6
20260506213820 16 183 0.0 0.0 0.00 3.12 3.12 63 1010.6
20260506213319 16 183 0.0 0.0 0.00 3.12 3.12 63 1010.6
20260506212819 15 185 0.0 0.0 0.00 3.12 3.12 64 1010.6
20260506212319 15 185 0.0 0.0 0.00 3.12 3.12 65 1010.6
20260506211818 15 189 0.0 0.0 0.00 3.12 3.12 66 1010.5
20260506211318 15 189 0.0 0.0 0.00 3.12 3.12 67 1010.6
20260506210818 15 189 0.0 0.0 0.00 3.12 3.12 66 1010.6
20260506210318 15 189 0.0 0.0 0.00 3.12 3.12 65 1010.6
20260506205817 16 189 0.0 0.0 0.00 3.12 3.12 64 1010.6
20260506205317 16 189 0.0 0.0 0.00 3.12 3.12 62 1010.5
20260506204817 16 189 0.0 0.0 0.00 3.12 3.12 61 1010.5
20260506204316 16 189 0.0 0.0 0.00 3.12 3.12 60 1010.4
20260506203816 16 189 0.0 0.0 0.00 3.12 3.12 59 1010.4
20260506203316 16 189 0.0 0.0 0.00 3.12 3.12 59 1010.4
20260506202816 16 189 0.0 0.0 0.00 3.12 3.12 59 1010.4
20260506202315 16 187 0.0 0.0 0.00 3.12 3.12 58 1010.3
20260506201815 16 187 0.0 0.0 0.00 3.12 3.12 58 1010.3
20260506201315 16 187 0.0 0.0 0.00 3.12 3.12 57 1010.3
20260506200814 16 187 0.0 0.0 0.00 3.12 3.12 57 1010.2
20260506200314 16 187 0.0 0.0 0.00 3.12 3.12 57 1010.0
20260506195814 17 187 0.0 0.0 0.00 3.12 3.12 56 1010.0
20260506195314 17 175 0.0 0.0 0.00 3.12 3.12 56 1009.9
20260506194813 17 214 0.0 0.0 0.00 3.12 3.12 56 1009.8
20260506194313 17 197 0.0 0.0 0.00 3.12 3.12 55 1009.8
20260506193813 17 232 0.0 0.0 0.00 3.12 3.12 55 1009.7
20260506193312 17 179 0.0 0.0 0.00 3.12 3.12 55 1009.6
20260506192812 17 179 0.0 0.0 0.00 3.12 3.12 54 1009.5
20260506192312 17 174 0.0 0.0 0.00 3.12 3.12 54 1009.4
20260506191812 17 190 0.0 0.0 0.00 3.12 3.12 53 1009.3
20260506191311 17 174 0.0 0.0 0.00 3.12 3.12 53 1009.2
20260506190811 17 182 0.0 0.0 0.00 3.12 3.12 52 1009.1
20260506190311 17 180 0.0 0.0 0.00 3.12 3.12 53 1009.2
20260506185810 17 191 0.0 0.0 0.00 3.12 3.12 52 1009.1
20260506185310 17 206 0.0 0.0 0.00 3.12 3.12 53 1009.1
20260506184810 17 188 0.0 0.0 0.00 3.12 3.12 53 1009.1
20260506184309 17 176 0.0 0.0 0.00 3.12 3.12 54 1009.0
20260506183809 17 166 0.0 0.0 0.00 3.12 3.12 54 1009.0
20260506183309 17 187 0.0 0.0 0.00 3.12 3.12 55 1008.9
20260506182809 17 184 0.0 0.0 0.00 3.12 3.12 55 1008.8
20260506182308 17 176 0.0 0.0 0.00 3.12 3.12 56 1008.9
20260506181808 17 180 0.0 0.0 0.00 3.12 3.12 58 1008.8
20260506181308 17 164 0.0 0.0 0.00 3.12 3.12 58 1008.7
20260506180808 17 187 0.0 0.0 0.00 3.12 3.12 59 1008.7
20260506180307 17 181 0.0 0.0 0.00 3.12 3.12 59 1008.7
20260506175807 17 180 0.0 0.0 0.00 3.12 3.12 61 1008.6
20260506175307 17 173 0.0 0.0 0.00 3.12 3.12 63 1008.6
20260506174806 17 179 0.0 0.0 0.00 3.12 3.12 65 1008.7
20260506174306 17 179 0.0 0.0 0.00 3.12 3.12 65 1008.7
20260506173806 18 179 0.0 0.0 0.00 3.12 3.12 65 1008.6
20260506173305 18 179 0.0 0.0 0.00 3.12 3.12 65 1008.5
20260506172805 18 179 0.0 0.0 0.00 3.12 3.12 65 1008.5
20260506172307 18 179 0.0 0.0 0.00 3.12 3.12 65 1008.3
20260506171805 18 179 0.0 0.0 0.00 3.12 3.12 64 1008.3
20260506171304 18 179 0.0 0.0 0.00 3.12 3.12 64 1008.3
20260506170804 18 186 0.0 0.0 0.00 3.12 3.12 65 1008.2
20260506170304 18 186 0.0 0.0 0.00 3.12 3.12 65 1008.2
20260506165803 18 173 0.0 0.0 0.00 3.12 3.12 66 1008.2
20260506165305 18 173 0.0 0.0 0.00 3.12 3.12 67 1008.2
20260506164803 18 110 0.0 0.0 0.00 3.12 3.12 69 1008.2
20260506164303 18 169 0.0 0.0 0.00 3.12 3.12 68 1008.2
20260506163802 18 169 0.0 0.0 0.00 3.12 3.12 68 1008.1
20260506163302 18 169 0.0 0.0 0.00 3.12 3.12 68 1008.1
20260506162802 18 170 0.0 0.0 0.00 3.12 3.12 68 1008.2
20260506162301 18 169 0.0 0.0 0.00 3.12 3.12 69 1008.2
20260506161801 18 168 0.0 0.0 0.00 3.12 3.12 70 1008.1
20260506161301 18 177 0.0 0.0 0.00 3.12 3.12 72 1008.1
20260506160801 18 177 0.0 0.0 0.00 3.12 3.12 73 1008.1
20260506160300 18 179 0.0 0.0 0.00 3.12 3.12 73 1008.0
20260506155800 18 180 0.0 0.0 0.00 3.12 3.12 73 1008.0
20260506155300 18 187 0.0 0.0 0.00 3.12 3.12 72 1007.9
20260506154759 18 187 0.0 0.0 0.00 3.12 3.12 72 1007.9
20260506154259 18 187 0.0 0.0 0.00 3.12 3.12 72 1007.9
20260506153759 18 187 0.0 0.0 0.00 3.12 3.12 72 1007.8
20260506153259 18 187 0.0 0.0 0.00 3.12 3.12 71 1007.9
20260506152758 18 190 0.0 0.0 0.00 3.12 3.12 72 1008.0
20260506152258 18 218 0.0 0.0 0.00 3.12 3.12 72 1008.0
20260506151758 18 220 0.0 0.0 0.00 3.12 3.12 73 1008.1
20260506151257 18 228 0.0 0.0 0.00 3.12 3.12 73 1008.1
20260506150757 19 153 0.0 0.0 0.00 3.12 3.12 74 1008.0
20260506150303 19 153 0.0 0.0 0.00 3.12 3.12 74 1008.0
20260506145757 19 152 0.0 0.0 0.00 3.12 3.12 73 1007.9
20260506145256 19 164 0.0 0.0 0.00 3.12 3.12 73 1008.1
20260506144756 18 164 0.0 0.0 0.00 3.12 3.12 74 1008.2
20260506144256 18 164 0.0 0.0 0.00 3.12 3.12 75 1008.3
20260506143755 18 164 0.0 0.0 0.00 3.12 3.12 76 1008.2
20260506143255 18 164 0.0 0.0 0.00 3.12 3.12 77 1008.2
20260506142755 18 164 0.0 0.0 0.00 3.12 3.12 77 1008.1
20260506142255 18 165 0.0 0.0 0.00 3.12 3.12 78 1008.2
20260506141754 18 153 0.0 0.0 0.00 3.12 3.12 78 1008.1
20260506141254 18 177 0.0 0.0 0.00 3.12 3.12 78 1008.1
20260506140754 18 191 0.0 0.0 0.00 3.12 3.12 78 1008.2
20260506140253 18 194 0.0 0.0 0.00 3.12 3.12 79 1008.2
20260506135753 18 215 0.0 0.0 0.00 3.12 3.12 81 1008.4
20260506135253 18 186 0.0 0.0 0.00 3.12 3.12 82 1008.5
20260506134753 17 200 0.0 0.0 0.00 3.12 3.12 83 1008.5
20260506134252 17 173 0.0 0.0 0.00 3.12 3.12 83 1008.6
20260506133752 17 171 0.0 0.0 0.00 3.12 3.12 83 1008.7
20260506133252 17 170 0.0 0.0 0.00 3.12 3.12 84 1008.8
20260506132751 17 176 0.0 0.0 0.00 3.12 3.12 84 1009.0
20260506132251 17 175 0.0 0.0 0.00 3.12 3.12 84 1009.0
20260506131751 17 174 0.0 0.0 0.00 3.12 3.12 83 1008.9
20260506131251 17 175 0.0 0.0 0.03 3.12 3.12 83 1009.0
20260506130750 17 200 0.0 0.0 0.05 3.12 3.12 84 1009.2
20260506130250 17 211 0.0 0.0 0.08 3.12 3.12 84 1009.3
20260506125750 17 208 0.0 0.0 0.08 3.12 3.12 84 1009.3
20260506125249 17 199 0.0 0.0 0.08 3.12 3.12 85 1009.3
20260506124749 17 181 0.0 0.0 0.08 3.12 3.12 85 1009.3
20260506124249 17 217 0.0 0.0 0.08 3.12 3.12 85 1009.3
20260506123749 17 206 0.0 0.0 0.08 3.12 3.12 85 1009.3
20260506123248 17 160 0.0 0.0 0.08 3.12 3.12 85 1009.3
20260506122748 17 174 0.0 0.0 0.08 3.12 3.12 85 1009.2
20260506122248 18 359 0.0 0.0 0.08 3.12 3.12 85 1009.0
20260506121747 18 359 0.0 0.0 0.08 3.12 3.12 84 1008.9
20260506121247 18 359 0.0 0.0 0.05 3.10 3.10 84 1009.0
20260506120747 19 241 0.0 0.0 0.03 3.07 3.07 82 1009.2
20260506120246 19 238 0.0 0.0 0.00 3.05 3.05 80 1009.2
20260506115746 19 256 0.0 0.0 0.00 3.07 3.05 75 1009.0
20260506115246 20 272 0.0 0.0 0.00 3.07 3.05 74 1009.1
20260506114746 20 238 0.0 0.0 0.00 3.07 3.05 74 1008.8
20260506114245 20 213 0.0 0.0 0.00 3.07 3.05 72 1008.8
20260506113745 20 130 0.0 0.0 0.00 3.07 3.05 72 1008.7
20260506113245 20 174 0.0 0.0 0.00 3.07 3.05 72 1008.8
20260506112744 20 168 0.0 0.0 0.00 3.07 3.05 71 1008.7
20260506112244 20 172 0.0 0.0 0.00 3.07 3.05 70 1008.8
20260506111744 20 187 0.0 0.0 0.00 3.07 3.05 70 1008.8
20260506111244 20 184 0.0 0.0 0.00 3.07 3.05 72 1008.8
20260506110743 20 170 0.0 0.0 0.00 3.07 3.05 70 1008.7
20260506110243 20 171 0.0 0.0 0.00 3.07 3.05 74 1008.8
20260506105743 19 129 0.0 0.0 0.00 3.07 3.05 75 1008.8
20260506105242 19 166 0.0 0.0 0.00 3.07 3.05 79 1008.9
20260506104742 18 166 0.0 0.0 0.00 3.07 3.05 84 1009.0
20260506104242 18 162 0.0 0.0 0.00 3.07 3.05 88 1008.9
20260506103742 17 158 0.0 0.0 0.00 3.07 3.05 89 1008.9
20260506103241 17 132 0.0 0.0 0.00 3.07 3.05 92 1009.0
20260506102741 17 177 0.0 0.0 0.00 3.07 3.05 93 1008.9
20260506102241 17 158 0.0 0.0 0.00 3.07 3.05 95 1009.0
20260506101740 17 86 0.0 0.0 0.00 3.07 3.05 95 1008.9
20260506101240 17 116 0.0 0.0 0.00 3.07 3.05 96 1009.1
20260506100740 16 88 0.0 0.0 0.00 3.07 3.05 96 1009.2
20260506100240 16 108 0.0 0.0 0.00 3.07 3.05 96 1009.3
20260506095739 16 129 0.0 0.0 0.00 3.15 3.05 96 1009.3
20260506095239 16 118 0.0 0.0 0.00 3.15 3.05 96 1009.4
20260506094739 16 138 0.0 0.0 0.00 3.15 3.05 96 1009.3
20260506094239 16 106 0.0 0.0 0.00 3.15 3.05 96 1009.4
20260506093738 15 118 0.0 0.0 0.00 3.15 3.05 96 1009.4
20260506093238 15 136 0.0 0.0 0.03 3.15 3.05 96 1009.3
20260506092738 15 122 0.0 0.0 0.03 3.15 3.05 96 1009.5
20260506092237 15 106 0.0 0.0 0.05 3.15 3.05 96 1009.5
20260506091737 15 125 0.0 0.0 0.08 3.15 3.05 97 1009.4
20260506091237 15 137 0.0 0.0 0.10 3.15 3.05 96 1009.4
20260506090737 15 140 0.0 0.0 0.13 3.15 3.05 96 1009.3
20260506090236 15 141 0.0 0.0 0.13 3.15 3.05 96 1009.4
20260506085736 14 124 0.0 0.0 0.15 3.33 3.05 96 1009.4
20260506085236 14 108 0.0 0.0 0.18 3.33 3.05 96 1009.4
20260506084735 14 116 0.0 0.0 0.18 3.33 3.05 96 1009.6
20260506084235 14 112 0.0 0.0 0.18 3.33 3.05 96 1009.7
20260506083735 14 111 0.0 0.0 0.18 3.33 3.05 96 1009.6
20260506083235 14 110 0.0 0.0 0.15 3.30 3.02 96 1009.5
20260506082734 14 108 0.0 0.0 0.18 3.30 3.02 96 1009.5
20260506082234 14 119 0.0 0.0 0.15 3.28 3.00 96 1009.5
20260506081734 14 123 0.0 0.0 0.13 3.25 2.97 96 1009.5
20260506081233 14 141 0.0 0.0 0.13 3.23 2.95 96 1009.6
20260506080733 14 142 0.0 0.0 0.10 3.20 2.92 96 1009.5
20260506080233 14 96 0.0 0.0 0.13 3.20 2.92 96 1009.4
20260506073231 13 102 0.0 0.0 0.18 3.15 2.87 96 1009.5
20260506072731 13 111 0.0 0.0 0.18 3.12 2.84 96 1009.4
20260506072231 13 112 0.0 0.0 0.20 3.12 2.84 96 1009.5
20260506071730 13 113 0.0 0.0 0.25 3.12 2.84 96 1009.5
20260506071230 13 127 0.0 0.0 0.28 3.10 2.82 96 1009.6
20260506070730 13 127 0.0 0.0 0.36 3.10 2.82 96 1009.6
20260506070229 13 128 0.0 0.0 0.38 3.07 2.79 96 1009.6
20260506062227 13 117 0.0 0.0 0.48 2.92 2.64 95 1009.9
20260506061727 13 118 0.0 0.0 0.46 2.87 2.59 95 1009.8
20260506061227 13 116 0.0 0.0 0.43 2.82 2.54 95 1009.8
20260506060726 13 116 0.0 0.0 0.38 2.74 2.46 95 1009.7
20260506060226 13 118 0.0 0.0 0.36 2.69 2.41 95 1009.6
20260506051223 13 129 0.0 0.0 0.51 3.05 2.11 95 1009.9
20260506050723 13 135 0.0 0.0 0.56 3.02 2.08 95 1010.1
20260506050222 13 137 0.0 0.0 0.61 3.00 2.06 95 1010.1
20260506044722 13 134 0.0 0.0 0.71 2.97 1.98 95 1010.3
20260506044221 13 127 0.0 0.0 0.71 2.95 1.96 95 1010.2
20260506043721 13 126 0.0 0.0 0.69 2.92 1.93 95 1010.1
20260506043221 13 178 0.0 0.0 0.64 2.87 1.88 95 1009.8
20260506042720 13 179 0.0 0.0 0.61 2.84 1.85 95 1009.9
20260506042220 13 178 0.0 0.0 0.53 2.77 1.78 95 1010.2
20260506041720 13 164 0.0 0.0 0.46 2.69 1.70 95 1010.3
20260506041220 13 146 0.0 0.0 0.36 2.59 1.60 95 1010.5
20260506040719 13 176 0.0 0.0 0.28 2.51 1.52 95 1010.3
20260506040219 13 144 0.0 0.0 0.23 2.44 1.45 95 1010.3
20260506035719 13 158 0.0 0.0 0.18 2.36 1.37 95 1010.3
20260506035218 13 146 0.0 0.0 0.18 2.31 1.32 95 1010.2
20260506034718 13 178 0.0 0.0 0.15 2.26 1.27 95 1010.2
20260506034218 13 181 0.0 0.0 0.15 2.24 1.24 95 1010.2
20260506033718 13 141 0.0 0.0 0.20 2.24 1.24 95 1010.1
20260506033217 13 142 0.0 0.0 0.20 2.24 1.24 95 1010.1
20260506032717 13 126 0.0 0.0 0.23 2.24 1.24 95 1010.0
20260506032217 13 126 0.0 0.0 0.25 2.24 1.24 95 1010.1
20260506031716 13 125 0.0 0.0 0.28 2.24 1.24 95 1010.1
20260506031216 13 133 0.0 0.0 0.28 2.24 1.24 95 1010.0
20260506030716 14 121 0.0 0.0 0.28 2.24 1.24 95 1010.0
20260506030216 14 125 0.0 0.0 0.25 2.21 1.22 95 1010.0
20260506025715 14 359 0.0 0.0 0.23 2.18 1.19 95 1010.2
20260506025215 14 121 0.0 0.0 0.20 2.13 1.14 95 1010.3
20260506024715 14 359 0.0 0.0 0.20 2.11 1.12 95 1010.2
20260506024214 14 359 0.0 0.0 0.23 2.08 1.09 95 1010.3
20260506023714 14 120 0.0 0.0 0.23 2.03 1.04 94 1010.3
20260506023214 14 125 0.0 0.0 0.28 2.03 1.04 95 1010.4
20260506022714 14 67 0.0 0.0 0.30 2.01 1.02 95 1010.4
20260506022213 14 67 0.0 0.0 0.33 1.98 0.99 94 1010.6
20260506021713 15 64 0.0 0.0 0.38 1.96 0.97 94 1010.8
20260506021213 15 66 0.0 0.0 0.41 1.96 0.97 94 1010.9
20260506020712 15 64 0.0 0.0 0.46 1.96 0.97 94 1011.1
20260506020212 15 62 0.0 0.0 0.53 1.96 0.97 94 1010.9
20260506015712 15 54 0.0 0.0 0.61 1.96 0.97 94 1010.8
20260506015211 15 52 0.0 0.0 0.64 1.93 0.94 94 1010.8
20260506014711 15 44 0.0 0.0 0.69 1.91 0.91 94 1010.6
20260506014211 15 47 0.0 0.0 0.69 1.85 0.86 94 1011.0
20260506013711 15 47 0.0 0.0 0.69 1.80 0.81 94 1011.3
20260506013210 15 45 0.0 0.0 0.69 1.75 0.76 94 1011.5
20260506012710 15 45 0.0 0.0 0.66 1.70 0.71 94 1011.3
20260506012210 15 45 0.0 0.0 0.64 1.65 0.66 94 1011.3
20260506011710 15 47 0.0 0.0 0.56 1.57 0.58 94 1011.4
20260506011209 15 45 0.0 0.0 0.53 1.55 0.56 93 1011.6
20260506010709 15 47 0.0 0.0 0.48 1.50 0.51 93 1011.6
20260506010209 15 44 0.0 0.0 0.41 1.42 0.43 93 1011.7
20260506005708 15 45 0.0 0.0 0.33 1.35 0.36 93 1011.6
20260506005208 15 45 0.0 0.0 0.28 1.30 0.30 93 1011.6
20260506004708 15 45 0.0 0.0 0.20 1.22 0.23 93 1011.5
20260506004207 15 44 0.0 0.0 0.15 1.17 0.18 93 1011.3
20260506003707 15 45 0.0 0.0 0.10 1.12 0.13 93 1011.2
20260506003207 15 45 0.0 0.0 0.05 1.07 0.08 93 1011.2
20260506002707 15 45 0.0 0.0 0.03 1.04 0.05 93 1011.0
20260506002206 15 45 0.0 0.0 0.03 1.02 0.03 93 1011.0
20260506001706 15 45 0.0 0.0 0.03 1.02 0.03 93 1011.0
20260506001206 15 45 0.0 0.0 0.03 1.02 0.03 93 1011.0
20260506000705 15 45 0.0 0.0 0.03 1.02 0.03 93 1011.1
20260506000205 15 45 0.0 0.0 0.03 1.02 0.03 92 1011.3